Location: Mentone
(34.5413°N, 85.5351°W)
Time: 20:59:01
(UTC-06:00)

S-56A Canister/Altair - Visible Passes

Search period start: 19 December 2014 00:00
Search period end: 29 December 2014 00:00
Orbit: 634 x 2502 km, 38.9° (Epoch: 15 December)

Date Brightness Start Highest point End Pass type
(mag) Time Alt. Az. Time Alt. Az. Time Alt. Az.
19 Dec 7.6 04:46:12 51° NNW 04:46:40 53° N 04:51:03 10° E visible
20 Dec 8.3 04:15:44 42° NE 04:15:44 42° NE 04:19:01 10° ENE visible
20 Dec 7.2 06:13:42 10° WNW 06:18:28 79° SSW 06:22:55 10° ESE visible
21 Dec 9.4 03:45:16 23° ENE 03:45:16 23° ENE 03:47:02 10° ENE visible
21 Dec 7.2 05:42:44 18° WNW 05:46:26 90° SSW 05:50:51 10° ESE visible
22 Dec 10.3 03:14:48 12° ENE 03:14:48 12° ENE 03:15:05 10° ENE visible
22 Dec 7.2 05:12:16 35° WNW 05:14:22 81° NNE 05:18:48 10° ESE visible
23 Dec 7.3 04:41:48 68° NNW 04:42:16 74° NNE 04:46:48 10° E visible
24 Dec 8.2 04:11:21 50° ENE 04:11:21 50° ENE 04:14:49 10° E visible
24 Dec 8.2 06:09:10 10° W 06:13:38 34° SSW 06:17:38 10° SSE visible
24 Dec 11.5 21:12:28 10° SSW 21:13:07 11° SSW 21:13:07 11° SSW visible
25 Dec 9.4 03:40:55 25° E 03:40:55 25° E 03:42:50 10° E visible
25 Dec 7.9 05:38:23 19° W 05:41:38 42° SSW 05:45:49 10° SE visible
25 Dec 11.2 20:39:53 10° S 20:42:46 16° S 20:42:46 16° S visible
26 Dec 10.4 03:10:31 12° E 03:10:31 12° E 03:10:53 10° E visible
26 Dec 7.7 05:07:59 37° W 05:09:37 51° SSW 05:14:00 10° SE visible
26 Dec 11.0 20:07:26 10° S 20:12:28 19° SSE 20:12:28 19° SSE visible
27 Dec 7.6 04:37:35 61° SSW 04:37:35 61° SSW 04:42:10 10° SE visible
27 Dec 10.9 19:35:08 10° S 19:42:12 20° SSE 19:42:12 20° SSE visible
27 Dec 11.3 21:37:05 10° SW 21:39:41 17° SW 21:39:41 17° SW visible
28 Dec 8.5 04:07:13 42° SE 04:07:13 42° SE 04:10:19 10° ESE visible
28 Dec 9.4 06:06:00 10° WSW 06:08:17 13° SW 06:10:25 10° SSW visible
28 Dec 10.9 19:03:03 10° S 19:11:55 19° SE 19:11:58 19° SE visible
28 Dec 10.9 21:04:03 10° SW 21:09:26 26° SSW 21:09:26 26° SSW visible
